K0OHU-1 Weather Reports


Display with metric or nautical units.
time (UTC)temp
F
wind
direction
speed
MPH
gust
MPH
rain 1hr
in
rain 24hr
in
rain mn
in
humidity
%
barometer
mb
20140902113245 47 197 0.0 0.0 0.00 0.00 0.00 85 1018.9
20140902111751 47 196 0.0 0.0 0.00 0.00 0.00 85 1018.9
20140902110259 47 197 0.0 0.0 0.00 0.00 0.00 84 1018.3
20140902104751 48 196 0.0 0.0 0.00 0.00 0.00 83 1019.6
20140902103240 48 197 0.0 0.0 0.00 0.00 0.00 82 1019.6
20140902101746 48 196 0.0 0.0 0.00 0.00 0.00 82 1019.7
20140902100300 49 196 0.0 0.0 0.00 0.00 0.00 82 1019.7
20140902094746 49 197 0.0 0.0 0.00 0.00 0.00 81 1020.1
20140902093257 50 196 0.0 0.0 0.00 0.00 0.00 81 1020.0
20140902091747 50 197 0.0 0.0 0.00 0.00 0.00 81 1020.2
20140902090257 50 197 0.0 0.0 0.00 0.00 0.00 81 1019.9
20140902084742 51 196 0.0 0.0 0.00 0.00 0.00 80 1019.9
20140902083254 52 197 0.0 0.0 0.00 0.00 0.00 78 1020.4
20140902081758 52 196 0.0 0.0 0.00 0.00 0.00 76 1020.5
20140902080248 53 197 0.0 0.0 0.00 0.00 0.00 74 1020.5
20140902074757 54 197 0.0 0.0 0.00 0.00 0.00 72 1020.7
20140902073247 55 197 0.0 0.0 0.00 0.00 0.00 70 1020.3
20140902071753 56 196 0.0 0.0 0.00 0.00 0.00 69 1020.5
20140902070245 56 196 0.0 0.0 0.00 0.00 0.00 68 1020.6
20140902064750 57 197 0.0 0.0 0.00 0.00 0.00 66 1020.5
20140902063240 58 197 0.0 0.0 0.00 0.00 0.00 65 1020.9
20140902061751 59 197 0.0 2.0 0.00 0.00 0.00 64 1020.8
20140902060259 59 195 0.0 4.0 0.00 0.00 0.00 61 1020.7
20140902054744 59 189 0.0 2.0 0.00 0.00 0.01 62 1019.8
20140902053258 58 170 0.0 0.0 0.00 0.00 0.01 63 1019.6
20140902051743 58 169 0.0 0.0 0.00 0.00 0.01 64 1018.9
20140902050253 59 169 0.0 0.0 0.00 0.00 0.01 65 1018.5
20140902044741 60 170 0.0 0.0 0.00 0.00 0.01 64 1018.4
20140902043252 60 170 0.0 0.0 0.00 0.00 0.01 62 1018.4
20140902041741 61 170 0.0 0.0 0.00 0.00 0.01 61 1018.6
20140902040250 62 170 0.0 0.0 0.00 0.00 0.01 59 1019.3
20140902034745 63 170 0.0 0.0 0.00 0.00 0.01 57 1018.4
20140902033245 64 170 0.0 0.0 0.00 0.00 0.01 56 1018.5
20140902031745 65 170 0.0 0.0 0.00 0.00 0.01 55 1018.4
20140902030244 65 170 0.0 0.0 0.00 0.00 0.01 53 1018.6
20140902024739 66 170 0.0 1.0 0.00 0.00 0.01 54 1017.6
20140902023259 67 170 0.0 0.0 0.00 0.00 0.01 51 1017.8
20140902021756 68 170 0.0 0.0 0.00 0.00 0.01 50 1017.2
20140902020239 69 170 0.0 0.0 0.00 0.00 0.01 49 1016.5
20140902013303 71 170 0.0 0.0 0.00 0.00 0.01 43 1015.6
20140902011752 73 169 0.0 0.0 0.00 0.00 0.01 42 1015.6
20140902010302 74 169 0.0 0.0 0.00 0.00 0.01 42 1015.2
20140902004759 74 169 0.0 0.0 0.00 0.00 0.01 43 1014.5
20140902003243 75 170 0.0 0.0 0.00 0.00 0.01 43 1014.2
20140902001750 76 170 0.0 0.0 0.00 0.00 0.01 38 1014.5
20140902000301 77 170 0.0 0.0 0.00 0.00 0.01 39 1014.5
20140901234751 78 169 0.0 0.0 0.00 0.00 0.01 35 1014.0
20140901233301 80 170 0.0 0.0 0.00 0.00 0.01 35 1014.3
20140901231747 81 169 0.0 1.0 0.00 0.00 0.01 31 1014.0
20140901230300 82 184 0.0 1.0 0.00 0.00 0.01 32 1013.8
20140901224745 84 186 0.0 1.0 0.00 0.00 0.01 30 1013.8
20140901223254 84 187 0.0 4.0 0.00 0.00 0.01 27 1014.0
20140901221756 84 136 0.0 1.0 0.00 0.00 0.01 29 1013.7
20140901220304 85 142 0.0 0.0 0.00 0.00 0.01 28 1013.4
20140901214812 84 142 0.0 2.0 0.00 0.00 0.01 28 1013.8
20140901213303 84 133 0.0 4.0 0.00 0.00 0.01 29 1013.8
20140901211813 83 141 0.0 2.0 0.00 0.00 0.01 30 1013.9
20140901210302 82 163 1.0 6.0 0.00 0.00 0.01 30 1014.5
20140901204807 83 118 0.0 4.0 0.00 0.00 0.01 30 1014.1
20140901203300 82 94 0.0 4.0 0.00 0.00 0.01 32 1014.7
20140901201805 82 123 0.0 4.0 0.00 0.00 0.01 31 1015.1
20140901200310 81 77 0.0 5.0 0.00 0.00 0.01 33 1015.3
20140901194801 80 61 0.0 2.0 0.00 0.00 0.01 34 1015.3
20140901193313 81 80 3.0 6.0 0.00 0.00 0.01 32 1015.3
20140901191820 80 74 0.0 1.0 0.00 0.00 0.01 33 1015.6
20140901190318 80 74 0.0 4.0 0.00 0.00 0.01 36 1015.6
20140901184827 79 80 0.0 2.0 0.00 0.00 0.01 36 1015.8
20140901183322 78 79 0.0 2.0 0.00 0.00 0.01 36 1015.5
20140901181836 78 150 1.0 4.0 0.00 0.00 0.01 34 1015.9
20140901180328 77 89 0.0 1.0 0.00 0.00 0.01 38 1016.0
20140901174839 76 88 0.0 1.0 0.00 0.00 0.01 41 1016.6
20140901173337 75 89 0.0 0.0 0.00 0.00 0.01 44 1016.6
20140901171850 74 96 0.0 3.0 0.00 0.00 0.01 47 1016.4
20140901170347 73 171 0.0 2.0 0.00 0.00 0.01 49 1017.0
20140901164855 72 212 0.0 3.0 0.00 0.00 0.01 50 1016.6
20140901163344 71 155 1.0 6.0 0.00 0.00 0.01 53 1016.9
20140901161855 70 169 1.0 4.0 0.00 0.00 0.01 53 1017.0
20140901160345 68 154 1.0 5.0 0.00 0.00 0.01 54 1016.7
20140901154851 67 79 0.0 4.0 0.00 0.00 0.01 54 1016.7
20140901153345 66 144 1.0 5.0 0.00 0.00 0.01 53 1016.8
20140901151852 65 153 1.0 2.0 0.00 0.00 0.01 54 1017.1
20140901150341 65 88 0.0 1.0 0.00 0.00 0.01 57 1017.0
20140901144852 63 75 0.0 1.0 0.00 0.00 0.01 64 1017.1
20140901143341 59 75 0.0 1.0 0.00 0.00 0.01 74 1017.1
20140901141838 54 75 0.0 0.0 0.00 0.00 0.01 91 1017.0
20140901140338 51 76 0.0 0.0 0.00 0.00 0.01 93 1017.0
20140901134838 50 76 0.0 0.0 0.00 0.00 0.00 94 1017.5
20140901133338 49 76 0.0 0.0 0.00 0.00 0.00 93 1017.2
20140901131845 48 75 0.0 0.0 0.00 0.00 0.00 93 1017.3
20140901130336 48 76 0.0 0.0 0.00 0.00 0.00 92 1017.2
20140901124843 48 76 0.0 0.0 0.00 0.00 0.00 92 1017.6
20140901123332 48 76 0.0 0.0 0.00 0.00 0.00 96 1017.6
20140901121844 49 76 0.0 0.0 0.00 0.00 0.00 91 1017.0
20140901120348 49 76 0.0 0.0 0.00 0.00 0.00 91 1016.9
20140901114835 49 75 0.0 0.0 0.00 0.00 0.00 91 1017.0